User: anonymous   Login
Location: Vancouver
(49.2500°N, 123.1330°W)
Time: 14:03:47
(UTC-07:00)
Language:

Vanguard 2 Rocket - Orbit

View from above orbital plane
View from above orbital plane
View from above satellite
View from above satellite

Ground track
Ground track

The orbit data is extracted from the following two-line orbital elements,

1 00012U 59001B   16235.30934555  .00000128  00000-0  60879-4 0  9994
2 00012  32.9067 191.3864 1666174 302.2000  42.7578 11.43991280362712
Epoch (UTC): 22 August 2016 07:25:27
Eccentricity: 0.1666174
inclination: 32.9067°
perigee height: 555 km
apogee height: 3328 km
right ascension of ascending node: 191.3864°
argument of perigee: 302.2000°
revolutions per day: 11.43991280
mean anomaly at epoch: 42.7578°
orbit number at epoch: 36271

The dashed part of the orbit path shows where the satellite is in the earth's shadow,  

DLR